sat.trackr.live / text

‹ back to catalog

ONEWEB-0188

NORAD 48231 · 2021-031X

PAYLOAD ACTIVE UNKNOWN

§ Identity

Operator
Country
UK
Launch date
2021-04-25
Launch site
VOSTO
Launch vehicle
Mass (kg)
RCS (m²)

Purposes: comms

External: N2YO · Heavens-Above · Gunter

§ Orbital elements

Epoch: 2026-05-25T03:29:25.787040Z

Period
109.55 min
Inclination
87.8934°
Eccentricity
0.0001857
Mean motion
13.14502925 rev/d
Perigee alt
1,204.4 km
Apogee alt
1,207.2 km
Semi-major
7,583.9 km
B*
-3.0158e-4
RAAN
294.3218°
Arg perigee
99.7740°
Mean anomaly
260.3600°
Rev number
24,511

§ Raw data

ONEWEB-01881 48231U 21031X   26145.14543735 -.00000099  00000+0 -30158-3 0  99942 48231  87.8934 294.3218 0001857  99.7740 260.3600 13.14502925245117

JSON: /api/v1/satellites/48231 · /tle

For live sub-satellite position, see the globe view (requires WebGL).

§ Visibility from observer

Set your observer location to see the next 7 days of passes ≥ 10°. The values pass through the URL so the page stays shareable.

No JS? Fill the form by hand. The geolocation button needs JavaScript.